Weather History for Gustavus, AK

Change the Weather History Date:

Monday, September 10, 2012

  Actual Average Record
Temperature  
Mean Temperature 52 °F -  
Max Temperature 57 °F 60 °F 69 °F (1984)
Min Temperature 46 °F 42 °F 28 °F (2004)
Degree Days  
Heating Degree Days 14    
Growing Degree Days 2 (Base 50)    
Moisture  
Dew Point 44 °F    
Average Humidity 81    
Maximum Humidity 87    
Minimum Humidity 63    
Precipitation  
Precipitation 0.00 in - - ()
Sea Level Pressure  
Sea Level Pressure 29.82 in    
Wind  
Wind Speed 3 mph (East)    
Max Wind Speed 12 mph    
Max Gust Speed -    
Visibility 10 miles    
Events      
Averages and records for this station are not official NWS values.
T = Trace of Precipitation, MM = Missing Value Source: NWS Daily Summary

Daily Weather History Graph

Daily Weather History Graph

Search for Another Location

Airport:

Trip Planner

Search our weather history database for the weather conditions in past years. The results will help you decide how hot, cold, wet, or windy it might be!

Date:

Astronomy

Sep. 10, 2012 Rise Set
Actual Time 6:22 AM AKDT 7:34 PM AKDT
Civil Twilight 5:41 AM AKDT 8:15 PM AKDT
Nautical Twilight 4:51 AM AKDT 9:05 PM AKDT
Astronomical Twilight 3:53 AM AKDT 10:02 PM AKDT
Moon No Moon Rise 5:03 PM AKDT (9/10)
Length of Visible Light 14h 33m
Length of Day
13h 11m
Waning Crescent, 29% of the Moon is Illuminated
Sep 10
Waning Crescent
Sep 15
New
Sep 22
First Quarter
Sep 29
Full
Oct 7
Last Quarter

Hourly Weather History & Observations

Time (AKDT) Temp. Windchill Dew Point Humidity Pressure Visibility Wind Dir Wind Speed Gust Speed Precip Events Conditions
12:16 AM 48.2 °F - 44.6 °F 87% 29.63 in 10.0 mi ESE 3.5 mph - N/A   Overcast
12:36 AM 48.2 °F - 44.6 °F 87% 29.63 in 10.0 mi East 3.5 mph - N/A   Overcast
12:56 AM 48.2 °F - 44.6 °F 87% 29.64 in 10.0 mi East 3.5 mph - N/A   Overcast
1:16 AM 48.2 °F - 44.6 °F 87% 29.65 in 10.0 mi Calm Calm - N/A   Overcast
1:36 AM 48.2 °F - 44.6 °F 87% 29.66 in 10.0 mi Calm Calm - N/A   Overcast
1:56 AM 48.2 °F - 44.6 °F 87% 29.67 in 10.0 mi Calm Calm - N/A   Overcast
2:16 AM 48.2 °F - 44.6 °F 87% 29.67 in 10.0 mi Calm Calm - N/A   Overcast
2:36 AM 48.2 °F - 44.6 °F 87% 29.68 in 10.0 mi Calm Calm - N/A   Overcast
2:56 AM 48.2 °F - 44.6 °F 87% 29.68 in 9.0 mi Calm Calm - N/A   Overcast
3:16 AM 48.2 °F - 44.6 °F 87% 29.69 in 10.0 mi Calm Calm - N/A   Overcast
3:36 AM 48.2 °F - 42.8 °F 82% 29.70 in 10.0 mi Calm Calm - N/A   Mostly Cloudy
3:56 AM 46.4 °F - 42.8 °F 87% 29.70 in 10.0 mi Calm Calm - N/A   Overcast
4:16 AM 46.4 °F - 42.8 °F 87% 29.70 in 10.0 mi Calm Calm - N/A   Overcast
4:36 AM 46.4 °F - 42.8 °F 87% 29.71 in 10.0 mi Calm Calm - N/A   Overcast
4:56 AM 46.4 °F - 42.8 °F 87% 29.72 in 10.0 mi Calm Calm - N/A   Overcast
5:16 AM 48.2 °F - 42.8 °F 82% 29.72 in 10.0 mi Calm Calm - N/A   Overcast
5:36 AM 48.2 °F - 42.8 °F 82% 29.73 in 10.0 mi Calm Calm - N/A   Overcast
5:56 AM 48.2 °F - 42.8 °F 82% 29.74 in 10.0 mi Calm Calm - N/A   Overcast
6:16 AM 46.4 °F - 42.8 °F 87% 29.74 in 10.0 mi Calm Calm - N/A   Overcast
6:36 AM 46.4 °F - 42.8 °F 87% 29.75 in 10.0 mi Calm Calm - N/A   Overcast
6:56 AM 46.4 °F - 42.8 °F 87% 29.76 in 10.0 mi Calm Calm - N/A   Overcast
7:16 AM 48.2 °F - 44.6 °F 87% 29.76 in 6.0 mi Calm Calm - N/A   Overcast
7:36 AM 48.2 °F - 42.8 °F 82% 29.77 in 10.0 mi Calm Calm - N/A   Overcast
7:56 AM 48.2 °F - 44.6 °F 87% 29.78 in 10.0 mi Calm Calm - N/A   Overcast
8:16 AM 48.2 °F - 44.6 °F 87% 29.79 in 10.0 mi Calm Calm - N/A   Overcast
8:36 AM 48.2 °F - 44.6 °F 87% 29.79 in 10.0 mi East 3.5 mph - N/A   Overcast
8:56 AM 48.2 °F - 44.6 °F 87% 29.80 in 10.0 mi Calm Calm - N/A   Overcast
9:16 AM 48.2 °F - 44.6 °F 87% 29.81 in 10.0 mi Calm Calm - N/A   Overcast
9:36 AM 48.2 °F - 44.6 °F 87% 29.81 in 10.0 mi East 4.6 mph - N/A   Overcast
9:56 AM 50.0 °F - 44.6 °F 82% 29.82 in 10.0 mi SE 5.8 mph - N/A   Mostly Cloudy
10:16 AM 50.0 °F - 44.6 °F 82% 29.83 in 10.0 mi SSE 4.6 mph - N/A   Overcast
10:36 AM 50.0 °F - 44.6 °F 82% 29.83 in 10.0 mi SE 6.9 mph - N/A   Overcast
10:56 AM 51.8 °F - 44.6 °F 76% 29.84 in 10.0 mi SE 6.9 mph - N/A   Overcast
11:16 AM 51.8 °F - 44.6 °F 76% 29.85 in 10.0 mi SE 5.8 mph - N/A   Overcast
11:36 AM 51.8 °F - 44.6 °F 76% 29.85 in 10.0 mi SSW 3.5 mph - N/A   Overcast
11:56 AM 51.8 °F - 44.6 °F 76% 29.86 in 10.0 mi SE 4.6 mph - N/A   Overcast
12:16 PM 53.6 °F - 44.6 °F 72% 29.86 in 10.0 mi SE 4.6 mph - N/A   Overcast
12:36 PM 53.6 °F - 44.6 °F 72% 29.86 in 10.0 mi ESE 5.8 mph - N/A   Overcast
12:56 PM 55.4 °F - 42.8 °F 63% 29.86 in 10.0 mi SE 3.5 mph - N/A   Overcast
1:16 PM 55.4 °F - 44.6 °F 67% 29.86 in 10.0 mi SE 10.4 mph - N/A   Mostly Cloudy
1:36 PM 55.4 °F - 42.8 °F 63% 29.87 in 10.0 mi SE 8.1 mph - N/A   Scattered Clouds
1:56 PM 55.4 °F - 42.8 °F 63% 29.87 in 10.0 mi SE 8.1 mph - N/A   Partly Cloudy
2:16 PM 55.4 °F - 42.8 °F 63% 29.87 in 10.0 mi SE 8.1 mph - N/A   Partly Cloudy
2:36 PM 57.2 °F - 44.6 °F 63% 29.87 in 10.0 mi SE 9.2 mph - N/A   Partly Cloudy
2:56 PM 55.4 °F - 42.8 °F 63% 29.87 in 10.0 mi SE 9.2 mph - N/A   Partly Cloudy
3:16 PM 53.6 °F - 42.8 °F 67% 29.87 in 10.0 mi ESE 9.2 mph - N/A   Scattered Clouds
3:36 PM 53.6 °F - 42.8 °F 67% 29.87 in 10.0 mi SE 11.5 mph - N/A   Mostly Cloudy
3:56 PM 53.6 °F - 42.8 °F 67% 29.87 in 10.0 mi ESE 5.8 mph - N/A   Overcast
4:16 PM 53.6 °F - 44.6 °F 72% 29.88 in 10.0 mi Calm Calm - N/A   Overcast
4:36 PM 51.8 °F - 44.6 °F 76% 29.88 in 10.0 mi NW 10.4 mph - N/A   Overcast
4:56 PM 50.0 °F - 44.6 °F 82% 29.89 in 10.0 mi North 4.6 mph - N/A   Overcast
5:16 PM 50.0 °F - 44.6 °F 82% 29.89 in 10.0 mi North 3.5 mph - N/A   Overcast
5:36 PM 50.0 °F - 44.6 °F 82% 29.89 in 10.0 mi North 4.6 mph - N/A   Overcast
5:56 PM 50.0 °F - 44.6 °F 82% 29.89 in 10.0 mi NE 5.8 mph - N/A   Overcast
6:16 PM 48.2 °F - 42.8 °F 82% 29.89 in 10.0 mi North 10.4 mph - N/A   Overcast
6:36 PM 48.2 °F - 44.6 °F 87% 29.91 in 8.0 mi West 5.8 mph - N/A   Overcast
6:56 PM 48.2 °F - 41.0 °F 76% 29.90 in 9.0 mi ENE 8.1 mph - N/A   Overcast
7:16 PM 48.2 °F - 42.8 °F 82% 29.90 in 10.0 mi East 6.9 mph - N/A   Mostly Cloudy
7:36 PM 48.2 °F - 42.8 °F 82% 29.91 in 10.0 mi ENE 4.6 mph - N/A   Mostly Cloudy
7:56 PM 48.2 °F - 42.8 °F 82% 29.91 in 10.0 mi Calm Calm - N/A   Overcast
8:16 PM 46.4 °F 45.2 °F 42.8 °F 87% 29.92 in 10.0 mi North 3.5 mph - N/A   Overcast
8:36 PM 46.4 °F - 42.8 °F 87% 29.92 in 10.0 mi Calm Calm - N/A   Mostly Cloudy
8:56 PM 46.4 °F 44.3 °F 42.8 °F 87% 29.93 in 10.0 mi WNW 4.6 mph - N/A   Overcast
9:16 PM 46.4 °F 45.2 °F 42.8 °F 87% 29.93 in 10.0 mi NNW 3.5 mph - N/A   Mostly Cloudy
9:36 PM 46.4 °F - 42.8 °F 87% 29.94 in 10.0 mi Calm Calm - N/A   Mostly Cloudy
9:56 PM 46.4 °F - 42.8 °F 87% 29.94 in 10.0 mi Calm Calm - N/A   Overcast
10:16 PM 46.4 °F - 42.8 °F 87% 29.95 in 10.0 mi Calm Calm - N/A   Overcast
10:36 PM 46.4 °F - 42.8 °F 87% 29.95 in 10.0 mi Calm Calm - N/A   Overcast
10:56 PM 46.4 °F 45.2 °F 42.8 °F 87% 29.95 in 10.0 mi North 3.5 mph - N/A   Overcast
11:16 PM 46.4 °F 43.5 °F 42.8 °F 87% 29.96 in 10.0 mi NNW 5.8 mph - N/A   Overcast
11:36 PM 46.4 °F - 42.8 °F 87% 29.95 in 10.0 mi Calm Calm - N/A   Overcast
11:56 PM 46.4 °F - 42.8 °F 87% 29.96 in 10.0 mi Calm Calm - N/A   Overcast